Location: Newcastle Observatory
(43.9158°N, 78.5831°W)
Time: 22:47:01
(UTC-04:00)

Amateur Radio Satellites - All Passes

Search period start: 24 October 2014 22:17
Search period end: 25 October 2014 22:17
Location: Newcastle Observatory, 43.9158°N, 78.5831°W

Satellite Date Start Highest point End Downlink Frequencies (MHz)
Time Altitude Azimuth
UOSAT-12 24 Oct 22:23:38 22:27:04 19° 37° (NE) 22:30:28 437.025 FM, 437.400 FM
FUNcube-1 24 Oct 22:24:42 22:29:12 59° 73° (ENE) 22:33:39 145.950 - 145.970 MHz USB
Oscar 11 24 Oct 22:27:26 22:31:41 56° 260° (W) 22:35:58 145.825 FM, Beacon 2401.500 USB
KITSAT 1 24 Oct 22:27:49 22:35:43 61° 245° (WSW) 22:43:35 435.175 FM
SO-50 24 Oct 22:38:58 22:43:42 54° 240° (WSW) 22:48:27 436.795 FM
ZACube-1 24 Oct 23:16:27 23:20:47 41° 262° (W) 23:25:05 437.345 MHz
MaSat-1 24 Oct 23:18:58 23:21:18 15° 106° (ESE) 23:23:32 437.345 MHz
UKube-1 24 Oct 23:24:19 23:26:31 14° 269° (W) 23:28:44 145.840 MHz, 145.915 MHz
RS-15 24 Oct 23:50:22 00:01:20 73° 308° (NW) 00:12:20 29.354 - 29.394 USB, Beacon 29.352 USB
UOSAT-12 25 Oct 00:03:03 00:07:48 79° 237° (WSW) 00:12:26 437.025 FM, 437.400 FM
FUNcube-1 25 Oct 00:03:18 00:05:55 15° 270° (W) 00:08:33 145.950 - 145.970 MHz USB
KITSAT 1 25 Oct 00:28:04 00:29:25 11° 264° (W) 00:30:47 435.175 FM
MaSat-1 25 Oct 00:52:42 00:56:40 49° 300° (WNW) 01:00:16 437.345 MHz
JAS-1B 25 Oct 01:52:23 01:57:53 25° 95° (E) 02:04:07 435.800 - 435.900 CW/SSB
AO-Echo 25 Oct 01:57:23 01:59:50 13° 88° (E) 02:02:17 ?
Oscar 16 25 Oct 02:01:15 02:05:31 26° 94° (E) 02:09:46 437.025 USB, Beacon 2401.1428
RS-15 25 Oct 02:06:40 02:15:56 30° 338° (NNW) 02:25:22 29.354 - 29.394 USB, Beacon 29.352 USB
Uribyol 2 25 Oct 02:21:38 02:25:03 17° 91° (E) 02:28:25 436.500 FM
ITAMSAT 1 25 Oct 02:27:32 02:31:09 19° 91° (E) 02:34:43 435.822 SSB
Gurwin Techsat 1B 25 Oct 02:48:12 02:51:21 16° 90° (E) 02:54:29 435.225 FM
Oscar 19 25 Oct 02:54:07 02:59:16 78° 103° (ESE) 03:04:23 437.125 CW, 437.150 USB
Oscar 10/S400 25 Oct 02:56:41 03:23:28 11° 250° (WSW) 03:59:08 145.825 - 145.975 CW/USB, Beacon 145.810 USB
TMSAT-1 25 Oct 02:59:34 03:02:29 15° 89° (E) 03:05:23 436.925 FM
AO-27 25 Oct 03:12:10 03:17:14 48° 99° (E) 03:22:15 436.795 MHz FM
AO-Echo 25 Oct 03:33:53 03:39:14 84° 285° (WNW) 03:44:33 ?
Oscar 16 25 Oct 03:40:13 03:45:00 41° 292° (WNW) 03:49:46 437.025 USB, Beacon 2401.1428
JAS-1B 25 Oct 03:42:18 03:48:47 64° 289° (WNW) 03:56:30 435.800 - 435.900 CW/SSB
Sapphire 25 Oct 03:43:56 03:48:30 29° 109° (ESE) 03:53:07 437.095 MHz 1200 baud AX-25 AFSK
Uribyol 2 25 Oct 03:59:47 04:04:57 63° 288° (WNW) 04:10:04 436.500 FM
PCSat 25 Oct 04:05:43 04:10:53 47° 114° (ESE) 04:16:04 145.825 MHz
ITAMSAT 1 25 Oct 04:05:52 04:11:01 59° 289° (WNW) 04:16:08 435.822 SSB
RS-15 25 Oct 04:24:06 04:32:58 27° 13° (NNE) 04:42:01 29.354 - 29.394 USB, Beacon 29.352 USB
Gurwin Techsat 1B 25 Oct 04:26:32 04:31:51 71° 287° (WNW) 04:37:07 435.225 FM
OPAL 25 Oct 04:30:19 04:34:39 28° 63° (ENE) 04:38:57 ?
Oscar 19 25 Oct 04:35:05 04:37:58 15° 301° (WNW) 04:40:51 437.125 CW, 437.150 USB
TMSAT-1 25 Oct 04:37:39 04:42:58 75° 286° (WNW) 04:48:15 436.925 FM
AO-27 25 Oct 04:52:18 04:56:27 24° 297° (WNW) 05:00:35 436.795 MHz FM
JAS-2 25 Oct 05:11:08 05:15:59 17° 86° (E) 05:20:49 435.800 - 435.900 CW/SSB, 435.910 FM
AO-Echo 25 Oct 05:14:46 05:17:10 13° 303° (WNW) 05:19:35 ?
AO-7 25 Oct 05:17:39 05:25:46 53° 102° (ESE) 05:33:51 29.400 - 29.500 MHz
Uosat F 25 Oct 05:19:10 05:23:57 41° 99° (E) 05:28:42 435.120 FM
Sapphire 25 Oct 05:26:32 05:31:43 45° 308° (NW) 05:36:56 437.095 MHz 1200 baud AX-25 AFSK
JAS-1B 25 Oct 05:36:02 05:38:27 12° 307° (NW) 05:40:58 435.800 - 435.900 CW/SSB
PCSat 25 Oct 05:49:45 05:54:29 30° 313° (NW) 05:59:16 145.825 MHz
OPAL 25 Oct 06:08:33 06:13:22 40° 260° (W) 06:18:10 ?
Gurwin Techsat 1B 25 Oct 06:09:32 06:10:51 11° 305° (NW) 06:12:10 435.225 FM
STRAND 1 25 Oct 06:15:03 06:19:22 28° 65° (ENE) 06:23:44 ?
TMSAT-1 25 Oct 06:20:16 06:21:58 12° 305° (NW) 06:23:40 436.925 FM
Hamsat 25 Oct 06:21:54 06:25:24 25° 95° (E) 06:28:53 145.90 MHz
RS-15 25 Oct 06:37:40 06:48:32 55° 44° (NE) 06:59:48 29.354 - 29.394 USB, Beacon 29.352 USB
JAS-2 25 Oct 06:54:09 07:01:58 82° 104° (ESE) 07:09:49 435.800 - 435.900 CW/SSB, 435.910 FM
Uosat F 25 Oct 06:58:23 07:02:31 26° 296° (WNW) 07:06:39 435.120 FM
AO-7 25 Oct 07:10:49 07:18:19 39° 302° (WNW) 07:25:48 29.400 - 29.500 MHz
Saudisat 1A 25 Oct 07:14:14 07:17:26 20° 112° (ESE) 07:20:40 436.775 MHz
Sapphire 25 Oct 07:14:52 07:16:36 11° 330° (NNW) 07:18:20 437.095 MHz 1200 baud AX-25 AFSK
SO-67 25 Oct 07:25:11 07:27:04 14° 92° (E) 07:28:58 435.3500 MHz FM
STRAND 1 25 Oct 07:53:37 07:58:24 39° 262° (W) 08:03:13 ?
Hamsat 25 Oct 07:57:41 08:01:20 29° 291° (WNW) 08:05:00 145.90 MHz
JAS-2 25 Oct 08:40:14 08:46:10 25° 302° (WNW) 08:52:12 435.800 - 435.900 CW/SSB, 435.910 FM
RS-15 25 Oct 08:50:19 09:00:55 52° 248° (WSW) 09:11:59 29.354 - 29.394 USB, Beacon 29.352 USB
Saudisat 1A 25 Oct 08:52:25 08:56:40 49° 310° (NW) 09:00:58 436.775 MHz
SO-67 25 Oct 08:57:01 09:00:12 34° 288° (WNW) 09:03:21 435.3500 MHz FM
MaSat-1 25 Oct 09:02:12 09:04:29 24° 55° (NE) 09:06:35 437.345 MHz
HO-68 25 Oct 09:28:39 09:35:00 33° 95° (E) 09:41:18 435.675 MHz FM
Oscar 11 25 Oct 10:14:07 10:17:34 23° 94° (E) 10:21:00 145.825 FM, Beacon 2401.500 USB
Saudisat 1A 25 Oct 10:36:14 10:37:19 11° 331° (NNW) 10:38:24 436.775 MHz
ZACube-1 25 Oct 11:04:25 11:08:18 33° 96° (E) 11:12:05 437.345 MHz
KITSAT 1 25 Oct 11:05:47 11:10:33 17° 100° (E) 11:15:19 435.175 FM
UKube-1 25 Oct 11:08:24 11:12:49 89° 285° (WNW) 11:17:10 145.840 MHz, 145.915 MHz
PCSat 25 Oct 11:10:21 11:12:41 13° 32° (NNE) 11:15:01 145.825 MHz
HO-68 25 Oct 11:16:01 11:22:57 53° 294° (WNW) 11:29:51 435.675 MHz FM
FUNcube-1 25 Oct 11:48:49 11:53:05 79° 284° (WNW) 11:57:15 145.950 - 145.970 MHz USB
Oscar 11 25 Oct 11:49:56 11:53:49 34° 291° (WNW) 11:57:41 145.825 FM, Beacon 2401.500 USB
ISS 25 Oct 12:23:04 12:25:23 18° 134° (SE) 12:27:43 145.800 FM
Sapphire 25 Oct 12:29:46 12:34:43 34° 49° (NE) 12:39:38 437.095 MHz 1200 baud AX-25 AFSK
Oscar 19 25 Oct 12:35:19 12:38:45 18° 61° (ENE) 12:42:11 437.125 CW, 437.150 USB
ZACube-1 25 Oct 12:41:11 12:44:32 23° 294° (WNW) 12:47:50 437.345 MHz
JAS-1B 25 Oct 12:41:59 12:46:05 20° 59° (ENE) 12:50:08 435.800 - 435.900 CW/SSB
Oscar 10/S400 25 Oct 12:46:12 13:02:14 24° 149° (SSE) 13:16:57 145.825 - 145.975 CW/USB, Beacon 145.810 USB
UKube-1 25 Oct 12:47:34 12:48:17 10° 302° (WNW) 12:48:59 145.840 MHz, 145.915 MHz
PCSat 25 Oct 12:52:06 12:57:25 52° 54° (NE) 13:02:42 145.825 MHz
SO-50 25 Oct 12:55:19 12:59:24 35° 116° (ESE) 13:03:36 436.795 FM
AO-27 25 Oct 12:55:59 12:58:10 13° 56° (NE) 13:00:21 436.795 MHz FM
KITSAT 1 25 Oct 12:56:38 13:04:42 82° 120° (ESE) 13:12:49 435.175 FM
HO-68 25 Oct 13:06:48 13:09:04 12° 315° (NW) 13:11:20 435.675 MHz FM
AO-Echo 25 Oct 13:11:24 13:14:53 20° 61° (ENE) 13:18:27 ?
Oscar 16 25 Oct 13:19:24 13:24:16 44° 69° (ENE) 13:29:09 437.025 USB, Beacon 2401.1428
Uribyol 2 25 Oct 13:40:28 13:45:01 31° 65° (ENE) 13:49:35 436.500 FM
ITAMSAT 1 25 Oct 13:46:34 13:51:11 33° 66° (ENE) 13:55:50 435.822 SSB
ISS 25 Oct 13:58:27 14:01:46 67° 331° (NNW) 14:05:06 145.800 FM
Gurwin Techsat 1B 25 Oct 14:10:12 14:14:43 29° 65° (ENE) 14:19:16 435.225 FM
Oscar 19 25 Oct 14:12:29 14:17:35 65° 258° (WSW) 14:22:43 437.125 CW, 437.150 USB
Sapphire 25 Oct 14:13:09 14:18:12 40° 248° (WSW) 14:23:14 437.095 MHz 1200 baud AX-25 AFSK
UOSAT-12 25 Oct 14:16:17 14:19:54 23° 112° (ESE) 14:23:35 437.025 FM, 437.400 FM
TMSAT-1 25 Oct 14:21:09 14:25:34 28° 64° (ENE) 14:30:00 436.925 FM
AO-7 25 Oct 14:29:02 14:34:37 21° 48° (NE) 14:40:11 29.400 - 29.500 MHz
JAS-1B 25 Oct 14:30:31 14:36:22 59° 258° (WSW) 14:41:59 435.800 - 435.900 CW/SSB
AO-27 25 Oct 14:31:38 14:36:51 83° 74° (ENE) 14:42:07 436.795 MHz FM
SO-50 25 Oct 14:35:53 14:39:58 32° 315° (NW) 14:44:10 436.795 FM
PCSat 25 Oct 14:36:10 14:40:29 25° 252° (WSW) 14:44:47 145.825 MHz
AO-Echo 25 Oct 14:48:22 14:53:11 57° 260° (W) 14:58:12 ?
KITSAT 1 25 Oct 14:54:02 15:01:00 31° 323° (NW) 15:08:00 435.175 FM
Oscar 16 25 Oct 14:59:38 15:03:47 24° 266° (W) 15:07:58 437.025 USB, Beacon 2401.1428
Uribyol 2 25 Oct 15:19:36 15:24:23 36° 263° (W) 15:29:12 436.500 FM
ITAMSAT 1 25 Oct 15:25:56 15:30:37 34° 264° (W) 15:35:22 435.822 SSB
ISS 25 Oct 15:36:08 15:38:54 23° 350° (N) 15:41:40 145.800 FM
Saudisat 1A 25 Oct 15:38:29 15:42:20 28° 44° (NE) 15:46:10 436.775 MHz
Gurwin Techsat 1B 25 Oct 15:49:35 15:54:32 39° 263° (W) 15:59:31 435.225 FM
UOSAT-12 25 Oct 15:55:14 15:59:45 48° 310° (NW) 16:04:21 437.025 FM, 437.400 FM
TMSAT-1 25 Oct 16:00:16 16:05:16 42° 262° (W) 16:10:19 436.925 FM
AO-27 25 Oct 16:14:44 16:17:00 13° 272° (W) 16:19:18 436.795 MHz FM
AO-7 25 Oct 16:17:54 16:26:09 78° 69° (ENE) 16:34:27 29.400 - 29.500 MHz
Uosat F 25 Oct 16:33:40 16:38:38 67° 73° (ENE) 16:43:39 435.120 FM
KITSAT 1 25 Oct 16:55:11 16:59:32 15° 352° (N) 17:03:53 435.175 FM
JAS-2 25 Oct 17:08:03 17:13:41 41° 65° (ENE) 17:20:01 435.800 - 435.900 CW/SSB, 435.910 FM
ISS 25 Oct 17:13:32 17:16:20 24° 11° (N) 17:19:08 145.800 FM
Hamsat 25 Oct 17:16:53 17:20:09 22° 67° (ENE) 17:23:23 145.90 MHz
Saudisat 1A 25 Oct 17:17:52 17:22:00 39° 243° (WSW) 17:26:07 436.775 MHz
UOSAT-12 25 Oct 17:39:20 17:41:04 12° 332° (NNW) 17:42:47 437.025 FM, 437.400 FM
AO-7 25 Oct 18:13:28 18:19:45 24° 268° (W) 18:26:05 29.400 - 29.500 MHz
Uosat F 25 Oct 18:15:00 18:17:54 15° 270° (W) 18:20:50 435.120 FM
OPAL 25 Oct 18:16:44 18:21:30 45° 101° (ESE) 18:26:14 ?
ISS 25 Oct 18:50:06 18:53:26 73° 30° (NNE) 18:56:46 145.800 FM
Hamsat 25 Oct 18:52:05 18:55:55 34° 263° (W) 18:59:45 145.90 MHz
KITSAT 1 25 Oct 18:53:17 18:58:47 19° 23° (NNE) 19:04:16 435.175 FM
JAS-2 25 Oct 18:53:21 18:58:48 36° 267° (W) 19:04:57 435.800 - 435.900 CW/SSB, 435.910 FM
SO-67 25 Oct 19:30:18 19:33:44 88° 75° (ENE) 19:37:12 435.3500 MHz FM
SO-50 25 Oct 19:46:06 19:48:07 12° 29° (NNE) 19:50:07 436.795 FM
OPAL 25 Oct 19:56:12 20:00:07 24° 299° (WNW) 20:04:01 ?
HO-68 25 Oct 19:59:12 20:05:11 30° 58° (ENE) 20:11:11 435.675 MHz FM
STRAND 1 25 Oct 20:02:20 20:07:28 64° 102° (ESE) 20:12:34 ?
ISS 25 Oct 20:27:37 20:29:46 16° 227° (SW) 20:31:56 145.800 FM
UKube-1 25 Oct 20:32:37 20:33:46 11° 58° (ENE) 20:34:56 145.840 MHz, 145.915 MHz
KITSAT 1 25 Oct 20:48:28 20:56:20 52° 49° (NE) 21:04:09 435.175 FM
RS-15 25 Oct 21:06:21 21:14:25 24° 102° (ESE) 21:22:24 29.354 - 29.394 USB, Beacon 29.352 USB
Oscar 11 25 Oct 21:10:44 21:14:07 23° 66° (ENE) 21:17:30 145.825 FM, Beacon 2401.500 USB
FUNcube-1 25 Oct 21:13:07 21:14:43 12° 60° (ENE) 21:16:19 145.950 - 145.970 MHz USB
SO-50 25 Oct 21:25:04 21:29:47 51° 50° (NE) 21:34:33 436.795 FM
STRAND 1 25 Oct 21:42:40 21:46:09 19° 300° (WNW) 21:49:38 ?
HO-68 25 Oct 21:45:23 21:52:26 61° 258° (WSW) 21:59:34 435.675 MHz FM
ZACube-1 25 Oct 22:01:53 22:06:02 35° 69° (ENE) 22:10:07 437.345 MHz
UKube-1 25 Oct 22:04:55 22:09:16 86° 255° (WSW) 22:13:40 145.840 MHz, 145.915 MHz
